| time (UTC) | temp F | wind direction | speed knots | gust knots | rain 1hr in | rain 24hr in | rain mn in | humidity % | barometer mb |
| 20260502195009 | 44 | 257 | 3.5 | 13.9 | 0.00 | 0.00 | 0.00 | 32 | 1016.3 |
| 20260502194506 | 44 | 228 | 4.3 | 13.0 | 0.00 | 0.00 | 0.00 | 33 | 1016.2 |
| 20260502194002 | 44 | 346 | 7.0 | 13.0 | 0.00 | 0.00 | 0.00 | 31 | 1016.4 |
| 20260502193500 | 43 | 288 | 7.0 | 14.8 | 0.00 | 0.00 | 0.00 | 32 | 1016.2 |
| 20260502192955 | 44 | 291 | 5.2 | 11.3 | 0.00 | 0.00 | 0.00 | 31 | 1016.5 |
| 20260502192452 | 44 | 244 | 5.2 | 12.2 | 0.00 | 0.00 | 0.00 | 33 | 1016.4 |
| 20260502191949 | 43 | 335 | 7.0 | 11.3 | 0.00 | 0.00 | 0.00 | 31 | 1016.5 |
| 20260502191447 | 44 | 330 | 9.6 | 10.4 | 0.00 | 0.00 | 0.00 | 31 | 1016.6 |
| 20260502190944 | 44 | 346 | 7.0 | 12.2 | 0.00 | 0.00 | 0.00 | 31 | 1016.6 |
| 20260502190441 | 43 | 255 | 3.5 | 8.7 | 0.00 | 0.00 | 0.00 | 31 | 1016.6 |
| 20260502185938 | 44 | 284 | 3.5 | 8.7 | 0.00 | 0.00 | 0.00 | 32 | 1016.7 |
| 20260502185433 | 43 | 18 | 11.3 | 16.5 | 0.00 | 0.00 | 0.00 | 31 | 1016.4 |
| 20260502184930 | 45 | 285 | 11.3 | 12.2 | 0.00 | 0.00 | 0.00 | 31 | 1016.7 |
| 20260502184426 | 44 | 7 | 3.5 | 10.4 | 0.00 | 0.00 | 0.00 | 33 | 1016.5 |
| 20260502183922 | 43 | 280 | 5.2 | 12.2 | 0.00 | 0.00 | 0.00 | 32 | 1016.6 |
| 20260502183419 | 43 | 288 | 7.0 | 14.8 | 0.00 | 0.00 | 0.00 | 32 | 1016.7 |
| 20260502182914 | 43 | 265 | 7.0 | 13.0 | 0.00 | 0.00 | 0.00 | 32 | 1016.9 |
| 20260502182410 | 43 | 288 | 9.6 | 15.6 | 0.00 | 0.00 | 0.00 | 32 | 1016.8 |
| 20260502181906 | 43 | 278 | 3.5 | 10.4 | 0.00 | 0.00 | 0.00 | 34 | 1016.6 |
| 20260502181405 | 43 | 348 | 8.7 | 16.5 | 0.00 | 0.00 | 0.00 | 35 | 1016.9 |
| 20260502180903 | 44 | 2 | 5.2 | 6.1 | 0.00 | 0.00 | 0.00 | 36 | 1016.6 |
| 20260502180400 | 42 | 349 | 6.1 | 9.6 | 0.00 | 0.00 | 0.00 | 36 | 1016.8 |
| 20260502170324 | 42 | 355 | 9.6 | 13.9 | 0.00 | 0.00 | 0.00 | 35 | 1017.2 |
| 20260502164312 | 40 | 282 | 4.3 | 13.0 | 0.00 | 0.00 | 0.00 | 39 | 1017.3 |
| 20260502163808 | 41 | 333 | 12.2 | 17.4 | 0.00 | 0.00 | 0.00 | 39 | 1017.5 |
| 20260502163304 | 41 | 277 | 11.3 | 13.0 | 0.00 | 0.00 | 0.00 | 39 | 1017.2 |
| 20260502162801 | 41 | 282 | 5.2 | 19.1 | 0.00 | 0.00 | 0.00 | 41 | 1017.2 |
| 20260502162258 | 41 | 264 | 5.2 | 11.3 | 0.00 | 0.00 | 0.00 | 38 | 1017.5 |
| 20260502161755 | 40 | 330 | 13.0 | 15.6 | 0.00 | 0.00 | 0.00 | 40 | 1017.5 |
| 20260502161251 | 41 | 304 | 3.5 | 10.4 | 0.00 | 0.00 | 0.00 | 41 | 1017.5 |
| 20260502160749 | 41 | 283 | 7.8 | 13.0 | 0.00 | 0.00 | 0.00 | 41 | 1017.5 |
| 20260502160248 | 41 | 295 | 9.6 | 14.8 | 0.00 | 0.00 | 0.00 | 41 | 1017.5 |
| 20260502152217 | 39 | 257 | 6.1 | 13.0 | 0.00 | 0.00 | 0.00 | 46 | 1017.8 |
| 20260502151715 | 39 | 246 | 5.2 | 11.3 | 0.00 | 0.00 | 0.00 | 46 | 1017.5 |
| 20260502151212 | 39 | 257 | 6.1 | 11.3 | 0.00 | 0.00 | 0.00 | 47 | 1017.8 |
| 20260502150709 | 40 | 243 | 5.2 | 15.6 | 0.00 | 0.00 | 0.00 | 49 | 1017.6 |
| 20260502150206 | 39 | 267 | 5.2 | 7.0 | 0.00 | 0.00 | 0.00 | 50 | 1017.8 |
| 20260502140129 | 36 | 259 | 3.5 | 8.7 | 0.00 | 0.00 | 0.00 | 55 | 1018.0 |
| 20260502130554 | 34 | 297 | 2.6 | 5.2 | 0.00 | 0.00 | 0.00 | 59 | 1018.3 |
| 20260502123538 | 32 | 230 | 2.6 | 7.0 | 0.00 | 0.00 | 0.00 | 66 | 1018.3 |
| 20260502123034 | 32 | 261 | 5.2 | 10.4 | 0.00 | 0.00 | 0.00 | 67 | 1018.2 |
| 20260502122531 | 32 | 287 | 4.3 | 7.8 | 0.00 | 0.00 | 0.00 | 68 | 1018.5 |
| 20260502122028 | 32 | 284 | 5.2 | 6.1 | 0.00 | 0.00 | 0.00 | 71 | 1018.2 |
| 20260502121525 | 32 | 276 | 1.7 | 9.6 | 0.00 | 0.00 | 0.00 | 72 | 1018.3 |
| 20260502121023 | 32 | 251 | 5.2 | 7.8 | 0.00 | 0.00 | 0.00 | 74 | 1018.3 |
| 20260502120519 | 31 | 241 | 0.0 | 2.6 | 0.00 | 0.00 | 0.00 | 75 | 1018.2 |
| 20260502115514 | 31 | 237 | 4.3 | 5.2 | 0.00 | 0.00 | 0.00 | 76 | 1018.3 |
| 20260502115009 | 31 | 274 | 3.5 | 4.3 | 0.00 | 0.00 | 0.00 | 76 | 1018.5 |
| 20260502114506 | 30 | 225 | 0.0 | 4.3 | 0.00 | 0.00 | 0.00 | 77 | 1018.3 |
| 20260502114003 | 30 | 261 | 5.2 | 5.2 | 0.00 | 0.00 | 0.00 | 79 | 1018.1 |
| 20260502113500 | 30 | 285 | 3.5 | 3.5 | 0.00 | 0.00 | 0.00 | 78 | 1018.2 |
| 20260502112959 | 30 | 244 | 3.5 | 5.2 | 0.00 | 0.00 | 0.00 | 77 | 1018.1 |
| 20260502112456 | 30 | 290 | 1.7 | 3.5 | 0.00 | 0.00 | 0.00 | 78 | 1018.1 |
| 20260502111954 | 29 | 256 | 3.5 | 3.5 | 0.00 | 0.00 | 0.00 | 78 | 1018.1 |
| 20260502111451 | 29 | 261 | 1.7 | 3.5 | 0.00 | 0.00 | 0.00 | 79 | 1018.1 |
| 20260502110948 | 29 | 182 | 0.0 | 2.6 | 0.00 | 0.00 | 0.00 | 80 | 1018.2 |
| 20260502110446 | 28 | 199 | 1.7 | 1.7 | 0.00 | 0.00 | 0.00 | 82 | 1018.1 |
| 20260502105943 | 27 | 151 | 0.0 | 1.7 | 0.00 | 0.00 | 0.00 | 83 | 1018.0 |
| 20260502105440 | 28 | 150 | 1.7 | 2.6 | 0.00 | 0.00 | 0.00 | 84 | 1018.2 |
| 20260502104938 | 28 | 154 | 1.7 | 3.5 | 0.00 | 0.00 | 0.00 | 84 | 1017.9 |
| 20260502104435 | 27 | 132 | 0.0 | 1.7 | 0.00 | 0.00 | 0.00 | 85 | 1017.9 |
| 20260502103932 | 27 | 155 | 1.7 | 1.7 | 0.00 | 0.00 | 0.00 | 85 | 1018.2 |
| 20260502103430 | 26 | 167 | 1.7 | 2.6 | 0.00 | 0.00 | 0.00 | 86 | 1018.2 |
| 20260502102927 | 26 | 168 | 1.7 | 1.7 | 0.00 | 0.00 | 0.00 | 86 | 1018.1 |
| 20260502102423 | 27 | 178 | 1.7 | 1.7 | 0.00 | 0.00 | 0.00 | 85 | 1018.1 |
| 20260502101920 | 27 | 165 | 0.9 | 1.7 | 0.00 | 0.00 | 0.00 | 85 | 1018.1 |
| 20260502101419 | 27 | 146 | 1.7 | 1.7 | 0.00 | 0.00 | 0.00 | 85 | 1018.2 |
| 20260502100917 | 26 | 147 | 0.0 | 1.7 | 0.00 | 0.00 | 0.00 | 86 | 1018.2 |
| 20260502100416 | 26 | 157 | 0.0 | 0.9 | 0.00 | 0.00 | 0.00 | 85 | 1017.9 |
| 20260502091349 | 26 | 27 | 0.0 | 0.9 | 0.00 | 0.00 | 0.00 | 89 | 1018.0 |
| 20260502090847 | 26 | 46 | 0.0 | 1.7 | 0.00 | 0.00 | 0.00 | 88 | 1017.8 |
| 20260502090344 | 27 | 0 | 0.9 | 1.7 | 0.00 | 0.00 | 0.00 | 87 | 1018.1 |
| 20260502071239 | 28 | 143 | 1.7 | 2.6 | 0.00 | 0.00 | 0.00 | 87 | 1017.9 |
| 20260502070737 | 28 | 155 | 1.7 | 1.7 | 0.00 | 0.00 | 0.00 | 87 | 1018.1 |
| 20260502070234 | 28 | 153 | 1.7 | 1.7 | 0.00 | 0.00 | 0.00 | 88 | 1018.1 |
| 20260502065733 | 27 | 190 | 2.6 | 2.6 | 0.00 | 0.00 | 0.00 | 88 | 1018.0 |
| 20260502065230 | 28 | 189 | 1.7 | 2.6 | 0.00 | 0.00 | 0.00 | 87 | 1017.9 |
| 20260502064729 | 28 | 145 | 1.7 | 2.6 | 0.00 | 0.00 | 0.00 | 85 | 1018.0 |
| 20260502064226 | 29 | 177 | 1.7 | 1.7 | 0.00 | 0.00 | 0.00 | 83 | 1017.6 |
| 20260502063723 | 28 | 123 | 1.7 | 1.7 | 0.00 | 0.00 | 0.00 | 84 | 1017.9 |
| 20260502063221 | 28 | 120 | 1.7 | 1.7 | 0.00 | 0.00 | 0.00 | 85 | 1018.0 |
| 20260502062718 | 28 | 126 | 0.9 | 1.7 | 0.00 | 0.00 | 0.00 | 85 | 1017.9 |
| 20260502062216 | 29 | 141 | 0.9 | 1.7 | 0.00 | 0.00 | 0.00 | 84 | 1017.9 |
| 20260502061714 | 29 | 129 | 0.0 | 1.7 | 0.00 | 0.00 | 0.00 | 83 | 1018.0 |
| 20260502061211 | 29 | 256 | 0.0 | 0.0 | 0.00 | 0.00 | 0.00 | 84 | 1018.2 |
| 20260502060706 | 28 | 79 | 0.0 | 0.9 | 0.00 | 0.00 | 0.00 | 85 | 1018.1 |
| 20260502060203 | 28 | 64 | 0.0 | 0.9 | 0.00 | 0.00 | 0.00 | 85 | 1017.9 |
| 20260502055701 | 29 | 129 | 0.0 | 1.7 | 0.00 | 0.00 | 0.00 | 84 | 1018.0 |
| 20260502055158 | 29 | 146 | 0.0 | 1.7 | 0.00 | 0.00 | 0.00 | 83 | 1017.8 |
| 20260502054657 | 30 | 206 | 0.0 | 0.9 | 0.00 | 0.00 | 0.00 | 83 | 1018.0 |
| 20260502054154 | 29 | 126 | 0.0 | 0.0 | 0.00 | 0.00 | 0.00 | 83 | 1018.0 |
| 20260502053651 | 29 | 264 | 1.7 | 1.7 | 0.00 | 0.00 | 0.00 | 84 | 1018.1 |
| 20260502053148 | 30 | 65 | 0.0 | 0.0 | 0.00 | 0.00 | 0.00 | 83 | 1018.1 |
| 20260502052647 | 30 | 282 | 0.0 | 0.9 | 0.00 | 0.00 | 0.00 | 82 | 1017.9 |
| 20260502052144 | 30 | 151 | 0.0 | 1.7 | 0.00 | 0.00 | 0.00 | 81 | 1017.8 |
| 20260502051642 | 30 | 245 | 0.0 | 1.7 | 0.00 | 0.00 | 0.00 | 81 | 1018.0 |
| 20260502051140 | 30 | 265 | 1.7 | 1.7 | 0.00 | 0.00 | 0.00 | 82 | 1017.8 |
| 20260502050636 | 30 | 272 | 0.0 | 1.7 | 0.00 | 0.00 | 0.00 | 82 | 1017.9 |
| 20260502050133 | 30 | 252 | 1.7 | 2.6 | 0.00 | 0.00 | 0.00 | 81 | 1017.9 |
| 20260502045630 | 31 | 303 | 1.7 | 1.7 | 0.00 | 0.00 | 0.00 | 81 | 1017.9 |
| 20260502045127 | 31 | 271 | 1.7 | 1.7 | 0.00 | 0.00 | 0.00 | 81 | 1017.6 |
| 20260502044623 | 30 | 279 | 1.7 | 2.6 | 0.00 | 0.00 | 0.00 | 82 | 1017.5 |
| 20260502044120 | 30 | 252 | 1.7 | 2.6 | 0.00 | 0.00 | 0.00 | 82 | 1017.5 |
| 20260502043618 | 30 | 267 | 1.7 | 1.7 | 0.00 | 0.00 | 0.00 | 82 | 1017.6 |
| 20260502043115 | 31 | 315 | 1.7 | 3.5 | 0.00 | 0.00 | 0.00 | 81 | 1017.6 |
| 20260502042614 | 31 | 26 | 0.0 | 1.7 | 0.00 | 0.00 | 0.00 | 80 | 1017.9 |
| 20260502042112 | 31 | 311 | 0.9 | 3.5 | 0.00 | 0.00 | 0.00 | 80 | 1017.6 |
| 20260502041610 | 31 | 240 | 0.0 | 1.7 | 0.00 | 0.00 | 0.00 | 81 | 1017.8 |
| 20260502041107 | 31 | 295 | 0.0 | 2.6 | 0.00 | 0.00 | 0.00 | 81 | 1017.9 |
| 20260502040603 | 31 | 30 | 0.0 | 1.7 | 0.00 | 0.00 | 0.00 | 80 | 1017.6 |
| 20260502040101 | 32 | 274 | 0.0 | 1.7 | 0.00 | 0.00 | 0.00 | 79 | 1017.9 |
| 20260502035556 | 32 | 267 | 1.7 | 5.2 | 0.00 | 0.00 | 0.00 | 78 | 1017.8 |
| 20260502035054 | 32 | 296 | 1.7 | 2.6 | 0.00 | 0.00 | 0.00 | 79 | 1018.0 |
| 20260502034551 | 32 | 327 | 1.7 | 2.6 | 0.00 | 0.00 | 0.00 | 79 | 1017.8 |
| 20260502034050 | 32 | 264 | 3.5 | 5.2 | 0.00 | 0.00 | 0.00 | 78 | 1017.8 |
| 20260502033548 | 32 | 291 | 2.6 | 4.3 | 0.00 | 0.00 | 0.00 | 78 | 1017.9 |
| 20260502033045 | 33 | 277 | 2.6 | 3.5 | 0.00 | 0.00 | 0.00 | 77 | 1017.9 |
| 20260502032540 | 33 | 272 | 2.6 | 5.2 | 0.00 | 0.00 | 0.00 | 77 | 1017.6 |
| 20260502032037 | 32 | 241 | 2.6 | 4.3 | 0.00 | 0.00 | 0.00 | 78 | 1017.8 |
| 20260502031535 | 32 | 273 | 2.6 | 3.5 | 0.00 | 0.00 | 0.00 | 78 | 1018.0 |
| 20260502031033 | 32 | 295 | 3.5 | 4.3 | 0.00 | 0.00 | 0.00 | 78 | 1017.6 |
| 20260502030532 | 32 | 298 | 3.5 | 5.2 | 0.00 | 0.00 | 0.00 | 77 | 1017.8 |
| 20260502030029 | 33 | 290 | 3.5 | 5.2 | 0.00 | 0.00 | 0.00 | 76 | 1017.9 |
| 20260502025526 | 33 | 287 | 0.9 | 2.6 | 0.00 | 0.00 | 0.00 | 76 | 1017.9 |
| 20260502025024 | 33 | 282 | 3.5 | 4.3 | 0.00 | 0.00 | 0.00 | 76 | 1017.8 |
| 20260502024521 | 32 | 272 | 2.6 | 4.3 | 0.00 | 0.00 | 0.00 | 76 | 1017.9 |
| 20260502024020 | 32 | 259 | 3.5 | 4.3 | 0.00 | 0.00 | 0.00 | 76 | 1018.0 |
| 20260502023517 | 33 | 280 | 1.7 | 3.5 | 0.00 | 0.00 | 0.00 | 75 | 1017.9 |
| 20260502023014 | 33 | 287 | 2.6 | 6.1 | 0.00 | 0.00 | 0.00 | 74 | 1018.0 |
| 20260502022510 | 33 | 255 | 1.7 | 5.2 | 0.00 | 0.00 | 0.00 | 73 | 1017.8 |
| 20260502022008 | 33 | 267 | 5.2 | 7.0 | 0.00 | 0.00 | 0.00 | 73 | 1017.9 |
| 20260502021505 | 33 | 290 | 0.9 | 5.2 | 0.00 | 0.00 | 0.00 | 74 | 1017.8 |
| 20260502021002 | 33 | 339 | 1.7 | 3.5 | 0.00 | 0.00 | 0.00 | 74 | 1017.8 |
| 20260502020500 | 33 | 293 | 1.7 | 6.1 | 0.00 | 0.00 | 0.00 | 73 | 1018.1 |
| 20260502015956 | 33 | 300 | 1.7 | 3.5 | 0.00 | 0.00 | 0.00 | 72 | 1017.8 |
| 20260502015454 | 34 | 245 | 1.7 | 3.5 | 0.00 | 0.00 | 0.00 | 72 | 1017.9 |
| 20260502014950 | 34 | 267 | 1.7 | 5.2 | 0.00 | 0.00 | 0.00 | 71 | 1017.9 |
| 20260502014447 | 33 | 269 | 2.6 | 3.5 | 0.00 | 0.00 | 0.00 | 71 | 1017.8 |
| 20260502013944 | 33 | 266 | 3.5 | 4.3 | 0.00 | 0.00 | 0.00 | 72 | 1017.6 |
| 20260502013440 | 33 | 334 | 3.5 | 7.0 | 0.00 | 0.00 | 0.00 | 71 | 1017.9 |
| 20260502012936 | 34 | 352 | 1.7 | 6.1 | 0.00 | 0.00 | 0.00 | 70 | 1017.8 |
| 20260502012434 | 34 | 290 | 3.5 | 5.2 | 0.00 | 0.00 | 0.00 | 69 | 1017.8 |
| 20260502011931 | 34 | 58 | 1.7 | 3.5 | 0.00 | 0.00 | 0.00 | 68 | 1017.6 |
| 20260502011427 | 35 | 269 | 5.2 | 7.0 | 0.00 | 0.00 | 0.00 | 67 | 1017.5 |
| 20260502010924 | 34 | 284 | 6.1 | 9.6 | 0.00 | 0.00 | 0.00 | 67 | 1017.6 |
| 20260502010421 | 34 | 302 | 5.2 | 7.0 | 0.00 | 0.00 | 0.00 | 67 | 1017.3 |
| 20260502005917 | 34 | 300 | 1.7 | 8.7 | 0.00 | 0.00 | 0.00 | 67 | 1017.5 |
| 20260502005415 | 34 | 0 | 5.2 | 6.1 | 0.00 | 0.00 | 0.00 | 67 | 1017.5 |
| 20260502004914 | 34 | 326 | 4.3 | 8.7 | 0.00 | 0.00 | 0.00 | 67 | 1017.5 |
| 20260502004409 | 35 | 288 | 4.3 | 7.0 | 0.00 | 0.00 | 0.00 | 66 | 1017.3 |
| 20260502003906 | 35 | 300 | 2.6 | 6.1 | 0.00 | 0.00 | 0.00 | 66 | 1017.4 |
| 20260502003404 | 35 | 283 | 5.2 | 8.7 | 0.00 | 0.00 | 0.00 | 65 | 1017.4 |
| 20260502002859 | 35 | 21 | 1.7 | 7.0 | 0.00 | 0.00 | 0.00 | 64 | 1017.3 |
| 20260502002357 | 35 | 271 | 2.6 | 7.8 | 0.00 | 0.00 | 0.00 | 64 | 1017.4 |
| 20260502001854 | 35 | 295 | 7.8 | 8.7 | 0.00 | 0.00 | 0.00 | 64 | 1017.2 |
| 20260502001352 | 35 | 289 | 1.7 | 6.1 | 0.00 | 0.00 | 0.00 | 64 | 1017.0 |
| 20260502000849 | 35 | 294 | 6.1 | 6.1 | 0.00 | 0.00 | 0.00 | 64 | 1017.0 |
| 20260502000348 | 35 | 271 | 4.3 | 7.8 | 0.00 | 0.00 | 0.00 | 63 | 1017.0 |
| 20260501235843 | 35 | 290 | 3.5 | 7.0 | 0.00 | 0.00 | 0.00 | 63 | 1017.1 |
| 20260501235339 | 35 | 280 | 3.5 | 5.2 | 0.00 | 0.00 | 0.00 | 63 | 1016.9 |
| 20260501234834 | 35 | 299 | 4.3 | 6.1 | 0.00 | 0.00 | 0.00 | 62 | 1016.8 |
| 20260501234332 | 35 | 265 | 9.6 | 12.2 | 0.00 | 0.00 | 0.00 | 60 | 1016.7 |
| 20260501233830 | 36 | 299 | 3.5 | 5.2 | 0.00 | 0.00 | 0.00 | 61 | 1017.0 |
| 20260501233327 | 35 | 290 | 3.5 | 7.8 | 0.00 | 0.00 | 0.00 | 60 | 1016.9 |
| 20260501232823 | 36 | 321 | 6.1 | 7.8 | 0.00 | 0.00 | 0.00 | 61 | 1017.0 |
| 20260501232320 | 36 | 296 | 3.5 | 5.2 | 0.00 | 0.00 | 0.00 | 61 | 1016.8 |
| 20260501231818 | 36 | 316 | 8.7 | 9.6 | 0.00 | 0.00 | 0.00 | 60 | 1017.0 |
| 20260501231316 | 36 | 270 | 8.7 | 8.7 | 0.00 | 0.00 | 0.00 | 59 | 1017.0 |
| 20260501230814 | 36 | 1 | 6.1 | 7.0 | 0.00 | 0.00 | 0.00 | 58 | 1016.6 |
| 20260501230312 | 36 | 348 | 5.2 | 8.7 | 0.00 | 0.00 | 0.00 | 56 | 1016.6 |
| 20260501225809 | 36 | 284 | 0.9 | 9.6 | 0.00 | 0.00 | 0.00 | 57 | 1016.9 |
| 20260501225307 | 36 | 335 | 6.1 | 7.8 | 0.00 | 0.00 | 0.00 | 57 | 1016.7 |
| 20260501224803 | 36 | 9 | 3.5 | 9.6 | 0.00 | 0.00 | 0.00 | 58 | 1016.8 |
| 20260501224300 | 36 | 1 | 4.3 | 9.6 | 0.00 | 0.00 | 0.00 | 56 | 1016.8 |
| 20260501223756 | 37 | 335 | 7.0 | 9.6 | 0.00 | 0.00 | 0.00 | 55 | 1016.8 |
| 20260501223253 | 37 | 27 | 2.6 | 6.1 | 0.00 | 0.00 | 0.00 | 56 | 1016.6 |
| 20260501222749 | 37 | 293 | 5.2 | 11.3 | 0.00 | 0.00 | 0.00 | 56 | 1016.7 |
| 20260501222246 | 37 | 292 | 3.5 | 8.7 | 0.00 | 0.00 | 0.00 | 57 | 1016.6 |
| 20260501221743 | 37 | 329 | 6.1 | 10.4 | 0.00 | 0.00 | 0.00 | 56 | 1016.8 |
| 20260501221240 | 37 | 20 | 7.0 | 13.0 | 0.00 | 0.00 | 0.00 | 57 | 1016.7 |
| 20260501220738 | 37 | 320 | 3.5 | 8.7 | 0.00 | 0.00 | 0.00 | 58 | 1016.6 |
| 20260501220235 | 37 | 284 | 3.5 | 9.6 | 0.00 | 0.00 | 0.00 | 59 | 1016.6 |
| 20260501215732 | 37 | 275 | 5.2 | 13.0 | 0.00 | 0.00 | 0.00 | 58 | 1016.5 |
| 20260501215227 | 37 | 285 | 3.5 | 10.4 | 0.00 | 0.00 | 0.00 | 59 | 1016.5 |
| 20260501214722 | 37 | 278 | 5.2 | 10.4 | 0.00 | 0.00 | 0.00 | 59 | 1016.5 |
| 20260501214219 | 37 | 309 | 4.3 | 12.2 | 0.00 | 0.00 | 0.00 | 58 | 1016.3 |
| 20260501213715 | 37 | 10 | 5.2 | 8.7 | 0.00 | 0.00 | 0.00 | 57 | 1016.4 |
| 20260501213211 | 37 | 331 | 9.6 | 12.2 | 0.00 | 0.00 | 0.00 | 56 | 1016.3 |
| 20260501212708 | 38 | 268 | 7.0 | 13.0 | 0.00 | 0.00 | 0.00 | 55 | 1015.9 |
| 20260501212204 | 38 | 332 | 7.0 | 10.4 | 0.00 | 0.00 | 0.00 | 54 | 1016.1 |
| 20260501211701 | 38 | 280 | 11.3 | 13.9 | 0.00 | 0.00 | 0.00 | 54 | 1016.1 |
| 20260501211158 | 38 | 357 | 5.2 | 10.4 | 0.00 | 0.00 | 0.00 | 54 | 1015.9 |
| 20260501210655 | 38 | 299 | 7.8 | 9.6 | 0.00 | 0.00 | 0.00 | 54 | 1015.9 |
| 20260501210152 | 39 | 284 | 7.0 | 11.3 | 0.00 | 0.00 | 0.00 | 52 | 1015.8 |
| 20260501205648 | 39 | 353 | 3.5 | 10.4 | 0.00 | 0.00 | 0.00 | 50 | 1015.8 |
| 20260501205146 | 39 | 7 | 7.0 | 15.6 | 0.00 | 0.00 | 0.00 | 48 | 1015.8 |
| 20260501204642 | 39 | 307 | 4.3 | 7.8 | 0.00 | 0.00 | 0.00 | 51 | 1015.9 |
| 20260501204138 | 38 | 19 | 7.8 | 8.7 | 0.00 | 0.00 | 0.00 | 53 | 1015.9 |
| 20260501203635 | 38 | 22 | 4.3 | 7.8 | 0.00 | 0.00 | 0.00 | 52 | 1015.8 |
| 20260501203133 | 38 | 310 | 1.7 | 12.2 | 0.00 | 0.00 | 0.00 | 54 | 1015.9 |
| 20260501202629 | 38 | 316 | 1.7 | 6.1 | 0.00 | 0.00 | 0.00 | 53 | 1015.9 |
| 20260501202126 | 38 | 17 | 4.3 | 9.6 | 0.00 | 0.00 | 0.00 | 53 | 1015.9 |
| 20260501201623 | 38 | 33 | 5.2 | 14.8 | 0.00 | 0.00 | 0.00 | 53 | 1015.8 |
| 20260501201119 | 38 | 1 | 5.2 | 6.1 | 0.00 | 0.00 | 0.00 | 54 | 1015.8 |
| 20260501200617 | 38 | 294 | 3.5 | 5.2 | 0.00 | 0.00 | 0.00 | 52 | 1015.8 |
| 20260501200114 | 38 | 298 | 2.6 | 7.0 | 0.00 | 0.00 | 0.00 | 54 | 1015.9 |
| 20260501195612 | 38 | 338 | 5.2 | 10.4 | 0.00 | 0.00 | 0.00 | 53 | 1015.9 |